Location: Alpha Ridge Park
(39.3209°N, 76.9128°W)
Time: 23:04:56
(UTC-04:00)

A-11 Canister half - All Passes

Search period start: 24 May 2019 00:00
Search period end: 03 June 2019 00:00
Orbit: 1525 x 1684 km, 47.3° (Epoch: 23 May)

Date Brightness Start Highest point End Pass type
(mag) Time Alt. Az. Time Alt. Az. Time Alt. Az.
24 May - 11:02:13 10° S 11:09:09 24° SE 11:16:08 10° ENE daylight
24 May - 13:03:43 10° SW 13:13:00 77° SE 13:22:34 10° ENE daylight
24 May - 15:09:15 10° W 15:18:31 58° NNW 15:28:07 10° ENE daylight
24 May - 17:15:28 10° WNW 17:24:55 59° NNE 17:34:41 10° E daylight
24 May - 19:20:47 10° WNW 19:30:31 77° SW 19:40:33 10° SE daylight
24 May - 21:27:04 10° WNW 21:34:35 25° SW 21:42:14 10° S visible
25 May - 10:40:57 10° S 10:47:37 22° SE 10:54:20 10° E daylight
25 May - 12:42:08 10° SW 12:51:24 74° SE 13:00:55 10° ENE daylight
25 May - 14:47:35 10° W 14:56:50 59° NNW 15:06:25 10° ENE daylight
25 May - 16:53:48 10° WNW 17:03:13 58° NNE 17:12:58 10° E daylight
25 May - 18:59:09 10° WNW 19:08:52 80° SW 19:18:54 10° SE daylight
25 May - 21:05:17 10° WNW 21:13:00 27° SW 21:20:53 10° S visible
26 May - 10:19:42 10° S 10:26:04 21° SE 10:32:29 10° E daylight
26 May - 12:20:34 10° SW 12:29:47 71° SE 12:39:14 10° ENE daylight
26 May - 14:25:54 10° W 14:35:10 60° NNW 14:44:43 10° ENE daylight
26 May - 16:32:09 10° WNW 16:41:32 57° N 16:51:13 10° E daylight
26 May - 18:37:31 10° WNW 18:47:14 82° SSW 18:57:16 10° SE daylight
26 May - 20:43:31 10° WNW 20:51:26 28° SW 20:59:30 10° S visible
27 May - 09:58:30 10° SSE 10:04:32 19° SE 10:10:36 10° E daylight
27 May - 11:59:00 10° SW 12:08:11 69° SE 12:17:35 10° ENE daylight
27 May - 14:04:14 10° W 14:13:29 61° NNW 14:23:02 10° ENE daylight
27 May - 16:10:30 10° WNW 16:19:50 56° N 16:29:28 10° E daylight
27 May - 18:15:54 10° WNW 18:25:35 85° SSW 18:35:36 10° SE daylight
27 May - 20:21:46 10° WNW 20:29:50 30° SW 20:38:06 10° S daylight
28 May - 09:37:19 10° SSE 09:43:01 18° SE 09:48:42 10° E daylight
28 May - 11:37:27 10° SW 11:46:36 66° SE 11:55:56 10° ENE daylight
28 May - 13:42:34 10° W 13:51:49 62° NNW 14:01:20 10° ENE daylight
28 May - 15:48:51 10° WNW 15:58:08 56° N 16:07:44 10° E daylight
28 May - 17:54:15 10° WNW 18:03:56 88° SSW 18:13:56 10° SE daylight
28 May - 20:00:02 10° WNW 20:08:16 32° SW 20:16:41 10° S daylight
29 May - 09:16:11 10° SSE 09:21:28 17° SE 09:26:46 10° E daylight
29 May - 11:15:55 10° SW 11:25:00 63° SE 11:34:15 10° ENE daylight
29 May - 13:20:54 10° W 13:30:08 63° NNW 13:39:40 10° ENE daylight
29 May - 15:27:11 10° WNW 15:36:27 55° N 15:46:00 10° E daylight
29 May - 17:32:38 10° WNW 17:42:17 90° NNE 17:52:17 10° ESE daylight
29 May - 19:38:19 10° WNW 19:46:40 34° SW 19:55:15 10° S daylight
30 May - 08:55:07 10° SSE 08:59:57 15° ESE 09:04:46 10° E daylight
30 May - 10:54:22 10° SW 11:03:25 60° SE 11:12:36 10° ENE daylight
30 May - 12:59:13 10° W 13:08:28 65° NNW 13:17:59 10° ENE daylight
30 May - 15:05:32 10° WNW 15:14:45 54° N 15:24:16 10° E daylight
30 May - 17:11:01 10° WNW 17:20:39 87° NNE 17:30:36 10° ESE daylight
30 May - 19:16:36 10° WNW 19:25:05 36° SW 19:33:48 10° SSE daylight
31 May - 08:34:08 10° SSE 08:38:25 14° ESE 08:42:42 10° E daylight
31 May - 10:32:50 10° SW 10:41:49 57° SE 10:50:56 10° ENE daylight
31 May - 12:37:33 10° WSW 12:46:49 66° NNW 12:56:18 10° ENE daylight
31 May - 14:43:52 10° WNW 14:53:03 54° N 15:02:32 10° E daylight
31 May - 16:49:23 10° WNW 16:58:59 85° NNE 17:08:55 10° ESE daylight
31 May - 18:54:54 10° WNW 19:03:30 37° SW 19:12:21 10° SSE daylight
01 Jun - 08:13:15 10° SE 08:16:53 13° ESE 08:20:32 10° E daylight
01 Jun - 10:11:19 10° SSW 10:20:14 54° SE 10:29:16 10° ENE daylight
01 Jun - 12:15:54 10° WSW 12:25:09 68° NNW 12:34:38 10° ENE daylight
01 Jun - 14:22:12 10° WNW 14:31:22 54° N 14:40:48 10° E daylight
01 Jun - 16:27:46 10° WNW 16:37:20 82° NNE 16:47:14 10° ESE daylight
01 Jun - 18:33:13 10° WNW 18:41:54 39° SW 18:50:51 10° SSE daylight
02 Jun - 07:52:32 10° SE 07:55:22 12° ESE 07:58:10 10° ESE daylight
02 Jun - 09:49:48 10° SSW 09:58:40 52° SE 10:07:36 10° ENE daylight
02 Jun - 11:54:13 10° WSW 12:03:30 69° NNW 12:12:59 10° ENE daylight
02 Jun - 14:00:32 10° WNW 14:09:40 53° N 14:19:04 10° E daylight
02 Jun - 16:06:09 10° WNW 16:15:41 80° NNE 16:25:33 10° ESE daylight
02 Jun - 18:11:32 10° WNW 18:20:19 42° SW 18:29:22 10° SSE daylight
